Regional Weather Roundup
Issued by NWS

Home | Current Version | Previous Version | Graphics & Text | Print | Product List | Glossary On
Versions: 1 2 3 4 5 6 7 8 9 10 11 12 13 14 15 16 17 18 19 20 21 22 23 24 25 26 27 28 29 30 31 32 33 34 35 36 37 38 39 40 41 42 43 44 45 46 47 48 49 50
000
ASUS43 KDTX 061410
RWRMI
MICHIGAN HOURLY REGIONAL WEATHER ROUNDUP
NATIONAL WEATHER SERVICE DETROIT/PONTIAC MI
1000 AM EDT MON JUL 06 2015

NOTE: "FAIR" INDICATES FEW OR NO CLOUDS BELOW 12,000 FEET WITH NO
SIGNIFICANT WEATHER AND/OR OBSTRUCTION TO VISIBILITY.

MIZ047>049-052>055-059>063-066>070-074>076-081>083-061500-
SOUTHEAST LOWER MICHIGAN

CITY           SKY/WX    TMP DP  RH WIND       PRES   REMARKS
ADRIAN         SUNNY     71  63  75 SW3       30.09R
ALMA           MOSUNNY   72  64  76 S3        30.06F
ANN ARBOR      SUNNY     73  64  73 W6        30.08R
BAD AXE        SUNNY     72  60  64 S6        30.08S
CARO           SUNNY     74  63  68 S6        30.07S
DETROIT CITY   SUNNY     73  62  68 SE5       30.06F
DETROIT        MOSUNNY   72  64  76 S3        30.08S
FLINT          SUNNY     76  62  62 SW7       30.08R
GROSSE ILE     SUNNY     72  66  83 S5        30.06F FOG
HILLSDALE      SUNNY     74  65  72 W5        30.09R
HOWELL         SUNNY     73  64  72 W7        30.09R

CITY           SKY/WX    TMP DP  RH WIND       PRES   REMARKS
JACKSON        SUNNY     74  63  68 SW7       30.08R
LAMBERTVILLE   SUNNY     75  64  69 S3        30.07S
LANSING        SUNNY     73  62  68 S7        30.07R
LAPEER         FAIR      75  59  58 SW3       30.08R
MASON          SUNNY     71  62  72 CALM      30.08R
MONROE         SUNNY     73  64  73 S5        30.06F
MT. CLEMENS    SUNNY     72  64  76 CALM      30.05F
PONTIAC        MOSUNNY   74  61  63 W5        30.07S
PORT HOPE        N/A     74  60  61 SW7       30.05S
PORT HURON     SUNNY     72  63  73 CALM      30.07F
TRI CITIES     MOSUNNY   74  61  63 SW7       30.07R
MIDLAND        FAIR      74  61  64 SW5       30.05F
TROY           SUNNY     74  63  67 W3        30.08S
SAGINAW HB     MOSUNNY   73  61  64 S5        30.06S
$$
MIZ043>046-050>051-056>058-064>065-071>073-077>080-061500-
SOUTHWEST LOWER MICHIGAN

CITY           SKY/WX    TMP DP  RH WIND       PRES   REMARKS
BATTLE CREEK   SUNNY     74  64  71 S8        30.07F
BENTON HARBOR  MOSUNNY   75  67  76 S7        30.01F
BIG RAPIDS     MOSUNNY   70  63  78 S7        30.01F
COLDWATER      SUNNY     72  63  71 SW6       30.08S
FREMONT        FAIR      72  64  76 S7        30.00F
HOLLAND        MOSUNNY   74  66  76 S9        30.02F
GRAND RAPIDS   PTSUNNY   73  64  73 S9        30.04F
IONIA          FAIR      73  64  72 SW6       30.05S
KALAMAZOO      SUNNY     74  65  73 SW9       30.05F
LUDINGTON      PTSUNNY   76  66  71 S7        29.96F
MARSHALL       SUNNY     73  63  69 S6        30.07S
MOUNT PLEASANT MOSUNNY   73  62  68 S5        30.04F
MUSKEGON       MOSUNNY   76  64  66 S7        29.99F
SOUTH HAVEN    MOSUNNY   74  66  76 S7        30.01F
$$
MIZ016>042-061500-
NORTHERN LOWER MICHIGAN

CITY           SKY/WX    TMP DP  RH WIND       PRES   REMARKS
ALPENA         MOSUNNY   76  61  59 S9        30.01F
BEAVER ISLAND  CLOUDY    72  61  69 S9G17     29.93F
BELLAIRE       PTSUNNY   75  62  62 S3        29.97S
CADILLAC       MOSUNNY   72  63  73 S7        30.00F
CHARLEVOIX     PTSUNNY   74  62  65 S6        29.97F
FRANKFORT      PTSUNNY   77  60  55 S8        29.94F
GAYLORD        PTSUNNY   74  62  66 SW10      30.01F
GRAYLING       PTSUNNY   72  62  69 S5        30.02F
HARBOR SPRINGS PTSUNNY   72  63  73 SW3       29.96S
HOUGHTON LAKE  MOSUNNY   71  62  73 S9        30.03F
MANISTEE       PTSUNNY   72  63  73 S7        29.97F
OSCODA         MOSUNNY   74  61  64 SW7       30.05S
PELLSTON       PTSUNNY   75  63  66 S8        29.97S
ROGERS CITY    MOSUNNY   75  65  71 S9        30.00F
TRAVERSE CITY  CLOUDY    76  63  64 VRB5      29.94F
$$
MIZ007>008-015-061500-
EASTERN UPPER MICHIGAN

CITY           SKY/WX    TMP DP  RH WIND       PRES   REMARKS
KINROSS        PTSUNNY   73  63  68 S8        29.94F
MACKINAC ISLAN PTSUNNY   70  62  76 S8        29.95S
NEWBERRY       CLOUDY    68  62  81 S12G20    29.91S
S. S. MARIE    PTSUNNY   71  62  73 S7        29.93F
MUNISING         N/A     74  65  73 SW5       29.86R
$$
MIZ004>006-011>014-085-061500-
CENTRAL UPPER MICHIGAN

CITY           SKY/WX    TMP DP  RH WIND       PRES   REMARKS
MANISTIQUE     CLOUDY    62  57  85 S9G18     29.90F HAZE
ESCANABA       CLOUDY    70  63  78 S10       29.88R
MENOMINEE      CLOUDY    72  63  73 SW10      29.87F
SAWYER-GWINN   MOSUNNY   70  64  83 SW8       29.87F FOG
$$
MIZ001>003-009>011-084-061500-
WESTERN UPPER MICHIGAN

CITY           SKY/WX    TMP DP  RH WIND       PRES   REMARKS
IRON MOUNTAIN  CLOUDY    68  64  87 S7        29.86F FOG
HOUGHTON       FOG       64  63  96 NW14      29.83F VSB 1/4
COPPER HARBOR    N/A     57  56  96 N9        29.85R
IRONWOOD       CLOUDY    66  64  94 CALM      29.83R
$$

ABBREVIATIONS USED IN REMARKS
   TC - TEMPERATURE IN CELSIUS
  WCI - WIND CHILL INDEX
   HX - HEAT INDEX
  VSB - VISIBILITY



USA.gov is the U.S. government's official web portal to all federal, state and local government web resources and services.